IK5WWP Weather Reports


Display with metric or nautical units.
time (UTC)temp
F
wind
direction
speed
MPH
gust
MPH
rain 1hr
in
rain 24hr
in
rain mn
in
humidity
%
barometer
mb
20260904192740 76 27 1.0 2.0 0.00 0.00 0.00 61 1016.7
20260904191841 76 37 1.0 2.0 0.00 0.00 0.00 62 1016.6
20260904185141 76 38 1.0 2.0 0.00 0.00 0.00 63 1016.7
20260904184240 77 43 0.0 2.0 0.00 0.00 0.00 63 1016.6
20260904183341 78 45 1.0 2.0 0.00 0.00 0.00 63 1016.3
20260904181541 78 29 0.0 2.0 0.00 0.00 0.00 65 1016.4
20260904175741 79 32 1.0 2.0 0.00 0.00 0.00 61 1016.2
20260904174841 80 21 0.0 2.0 0.00 0.00 0.00 61 1016.0
20260904173941 82 53 0.0 2.0 0.00 0.00 0.00 61 1015.7
20260904173041 84 41 0.0 2.0 0.00 0.00 0.00 61 1015.9
20260904172141 85 35 1.0 2.0 0.00 0.00 0.00 63 1016.1
20260904170341 86 25 0.0 4.0 0.00 0.00 0.00 59 1016.0
20260904165441 87 51 2.0 4.0 0.00 0.00 0.00 58 1016.0
20260904164541 87 47 2.0 4.0 0.00 0.00 0.00 56 1016.3
20260904163641 88 55 0.0 4.0 0.00 0.00 0.00 54 1016.3
20260904161841 89 39 1.0 7.0 0.00 0.00 0.00 50 1016.1
20260904155141 90 50 2.0 4.0 0.00 0.00 0.00 44 1016.3
20260904154241 90 57 1.0 7.0 0.00 0.00 0.00 44 1016.3
20260904153341 91 25 2.0 6.0 0.00 0.00 0.00 42 1016.5
20260904152441 92 43 2.0 4.0 0.00 0.00 0.00 39 1016.5
20260904150641 92 53 2.0 4.0 0.00 0.00 0.00 37 1016.6
20260904145741 92 41 2.0 6.0 0.00 0.00 0.00 37 1016.4
20260904143941 92 44 2.0 9.0 0.00 0.00 0.00 38 1016.5
20260904143041 92 54 2.0 4.0 0.00 0.00 0.00 37 1016.8
20260904142141 94 118 2.0 4.0 0.00 0.00 0.00 33 1016.7
20260904141241 94 31 2.0 7.0 0.00 0.00 0.00 33 1016.4
20260904135441 95 70 1.0 4.0 0.00 0.00 0.00 36 1016.6
20260904134541 95 90 2.0 6.0 0.00 0.00 0.00 38 1016.7
20260904133641 95 60 2.0 4.0 0.00 0.00 0.00 40 1016.5
20260904131841 96 46 1.0 4.0 0.00 0.00 0.00 37 1016.6
20260904130941 96 115 1.0 7.0 0.00 0.00 0.00 36 1016.6
20260904125429 96 105 4.0 4.0 0.00 0.00 0.00 34 1016.9
20260904124529 97 104 1.0 4.0 0.00 0.00 0.00 33 1016.9
20260904123629 96 97 1.0 6.0 0.00 0.00 0.00 34 1017.1
20260904122730 96 112 2.0 6.0 0.00 0.00 0.00 36 1017.0
20260904121829 95 112 1.0 6.0 0.00 0.00 0.00 36 1017.3
20260904120929 95 90 3.0 6.0 0.00 0.00 0.00 36 1017.3
20260904120029 96 33 2.0 4.0 0.00 0.00 0.00 38 1017.5
20260904113329 94 115 1.0 4.0 0.00 0.00 0.00 40 1017.3
20260904112430 94 116 2.0 4.0 0.00 0.00 0.00 41 1017.3
20260904111529 93 112 2.0 4.0 0.00 0.00 0.00 42 1017.5
20260904110629 93 112 2.0 4.0 0.00 0.00 0.00 41 1017.5
20260904105729 93 104 2.0 4.0 0.00 0.00 0.00 43 1017.6
20260904104829 93 74 0.0 2.0 0.00 0.00 0.00 44 1017.6
20260904103029 92 112 1.0 4.0 0.00 0.00 0.00 46 1017.9
20260904102130 93 111 0.0 2.0 0.00 0.00 0.00 48 1017.9
20260904101229 90 93 2.0 4.0 0.00 0.00 0.00 50 1018.1
20260904095429 91 90 1.0 4.0 0.00 0.00 0.00 51 1018.3
20260904094529 90 90 0.0 4.0 0.00 0.00 0.00 51 1018.2
20260904093630 88 73 1.0 2.0 0.00 0.00 0.00 52 1018.4
20260904092730 89 68 0.0 2.0 0.00 0.00 0.00 52 1018.3
20260904090929 87 68 0.0 4.0 0.00 0.00 0.00 56 1018.5
20260904090029 86 68 0.0 2.0 0.00 0.00 0.00 56 1018.5
20260904084229 86 68 1.0 2.0 0.00 0.00 0.00 57 1018.3
20260904083329 84 69 0.0 2.0 0.00 0.00 0.00 59 1018.5
20260904082430 83 68 0.0 2.0 0.00 0.00 0.00 61 1018.3
20260904081529 81 68 0.0 4.0 0.00 0.00 0.00 65 1018.1
20260904080629 80 68 0.0 2.0 0.00 0.00 0.00 66 1018.3
20260904075729 79 68 2.0 2.0 0.00 0.00 0.00 67 1018.1
20260904073030 77 1 0.0 2.0 0.00 0.00 0.00 68 1018.2
20260904072130 77 1 0.0 2.0 0.00 0.00 0.00 70 1018.1
20260904070330 75 0 0.0 0.0 0.00 0.00 0.00 74 1018.1
20260904065430 74 0 0.0 0.0 0.00 0.00 0.00 75 1017.8
20260904064530 72 0 0.0 0.0 0.00 0.00 0.00 76 1018.0
20260904062730 71 1 0.0 2.0 0.00 0.00 0.00 79 1018.1
20260904061830 70 1 0.0 2.0 0.00 0.00 0.00 82 1018.0
20260904060930 69 0 0.0 0.0 0.00 0.00 0.00 84 1018.2
20260904060030 69 0 0.0 0.0 0.00 0.00 0.00 84 1018.0
20260904055130 68 0 0.0 0.0 0.00 0.00 0.00 84 1018.2
20260904054230 68 1 0.0 2.0 0.00 0.00 0.00 84 1017.8
20260904053330 68 1 0.0 2.0 0.00 0.00 0.00 84 1017.9
20260904052430 68 0 0.0 0.0 0.00 0.00 0.00 84 1017.8
20260904051530 68 0 0.0 0.0 0.00 0.00 0.00 84 1017.6
20260904050630 68 0 0.0 0.0 0.00 0.00 0.00 84 1017.7
20260904045730 68 0 0.0 0.0 0.00 0.00 0.00 84 1017.9
20260904044830 68 1 0.0 2.0 0.00 0.00 0.00 84 1017.7
20260904043930 68 1 0.0 2.0 0.00 0.00 0.00 83 1017.7
20260904042130 69 1 0.0 2.0 0.00 0.00 0.00 82 1017.7
20260904041230 69 1 0.0 2.0 0.00 0.00 0.00 82 1017.5
20260904040330 69 1 0.0 2.0 0.00 0.00 0.00 81 1017.5
20260904035430 70 0 0.0 0.0 0.00 0.00 0.00 79 1017.7
20260904034530 70 1 0.0 2.0 0.00 0.00 0.00 78 1017.5
20260904033630 70 1 0.0 2.0 0.00 0.00 0.00 78 1017.5
20260904032730 70 1 0.0 2.0 0.00 0.00 0.00 78 1017.6
20260904031830 70 1 0.0 2.0 0.00 0.00 0.00 79 1017.6
20260904030930 69 1 0.0 2.0 0.00 0.00 0.00 81 1017.6
20260904030030 69 1 0.0 2.0 0.00 0.00 0.00 82 1017.6
20260904025130 69 1 0.0 2.0 0.00 0.00 0.00 82 1017.6
20260904024230 69 0 0.0 0.0 0.00 0.00 0.00 82 1017.5
20260904023330 69 0 0.0 0.0 0.00 0.00 0.00 82 1017.6
20260904022430 69 0 0.0 0.0 0.00 0.00 0.00 82 1017.4
20260904021530 69 0 0.0 0.0 0.00 0.00 0.00 82 1017.3
20260904014830 70 0 0.0 0.0 0.00 0.00 0.00 81 1017.4
20260904013930 70 1 0.0 2.0 0.00 0.00 0.00 81 1017.5
20260904013030 70 1 0.0 2.0 0.00 0.00 0.00 81 1017.6
20260904012130 71 0 0.0 0.0 0.00 0.00 0.00 81 1017.4
20260904011230 71 0 0.0 0.0 0.00 0.00 0.00 80 1017.4
20260904010330 71 0 0.0 0.0 0.00 0.00 0.00 80 1017.4
20260904004530 71 1 0.0 2.0 0.00 0.00 0.00 80 1017.4
20260904002732 72 1 0.0 2.0 0.00 0.00 0.00 79 1017.3
20260904001830 72 1 0.0 2.0 0.00 0.00 0.00 79 1017.2
20260904000930 72 0 0.0 0.0 0.00 0.00 0.00 79 1017.4
20260903235130 72 0 0.0 0.0 0.00 0.00 0.00 78 1017.4
20260903234230 72 0 0.0 0.0 0.00 0.00 0.00 78 1017.2
20260903233330 73 0 0.0 0.0 0.00 0.00 0.00 77 1017.3
20260903232430 73 0 0.0 0.0 0.00 0.00 0.00 77 1017.2
20260903231531 73 1 0.0 2.0 0.00 0.00 0.00 77 1017.3
20260903230630 73 1 1.0 2.0 0.00 0.00 0.00 77 1017.2
20260903224831 74 0 0.0 0.0 0.00 0.00 0.00 76 1017.1
20260903223930 74 1 0.0 2.0 0.00 0.00 0.00 76 1017.1
20260903223031 74 1 1.0 2.0 0.00 0.00 0.00 75 1017.0
20260903222131 75 1 0.0 2.0 0.00 0.00 0.00 74 1017.0
20260903215512 76 1 0.0 2.0 0.00 0.00 0.00 71 1016.8
20260903214612 76 354 0.0 2.0 0.00 0.00 0.00 71 1017.1
20260903213712 76 21 2.0 4.0 0.00 0.00 0.00 70 1016.8
20260903211012 77 45 1.0 2.0 0.00 0.00 0.00 69 1016.9
20260903210112 78 40 0.0 6.0 0.00 0.00 0.00 68 1016.8
20260903205212 77 39 2.0 2.0 0.00 0.00 0.00 68 1016.8
20260903204312 77 64 0.0 2.0 0.00 0.00 0.00 70 1016.6
20260903203412 77 0 0.0 0.0 0.00 0.00 0.00 71 1016.8
20260903202513 76 68 0.0 2.0 0.00 0.00 0.00 73 1016.7
20260903201612 76 69 1.0 2.0 0.00 0.00 0.00 73 1016.6
20260903195812 77 0 0.0 0.0 0.00 0.00 0.00 71 1016.5
20260903194912 77 68 0.0 2.0 0.00 0.00 0.00 71 1016.2
20260903194012 78 68 0.0 2.0 0.00 0.00 0.00 70 1016.3